Altus Air Force Base Altus US
ICAO: KLTS
IATA: LTS
Category: Large
Scheduled Services: No

Elevation: 1382 ft
TransAlt. 18000 ft.

Airport Communications:
APP:125.1
ATIS:27.35
CLNC DEL:120.65
DEP:125.1
GND:121.85
PMSV METRO:23.98
COMD POST:31.1
PTD:37.22
TWR:119.65

KLTS Zoom In..

Runways:

(A) RW 17L length 9001 ft width 150 ft
ILS 110.55 / hdg 172

(B) RW 17R length 13440 ft width 150 ft
ILS 111.30 / hdg 172

(C) RW 35L length 13440 ft width 150 ft
ILS 110.30 / hdg 352

(D) RW 35R length 9001 ft width 150 ft
ILS 110.55 / hdg 352

Location; KLTS
Day. 23 / Time. 06.56 Zulu
* Altimeter: 29.87
* Temperature: 28° c. 82.4°f.
* Wind from: 050° Speed 04 kn.
Dewpoint: 18° c.
Visibility: 10 Statute Miles.
Clouds: Clear (automated report).

KLTS 230656Z AUTO 05004KT 10SM CLR 28/18 A2987 RMK AO2 SLP094 T02840176 $


Wind From 050°
Speed 04 kn.

 
 
jpsmedia.com for Web Design worldairports.se 2018   terms of use